Home > Weather > Waterbury > Past weeks

Flag for U.S.A. Weather for the Past 2 Weeks in Waterbury, Connecticut, U.S.A.

Now
28 °F

Clear.


Feels Like: 25 °F
Forecast: 24 / 44 °F
Wind: 3 mph from Southwest

Location: Oxford

Current Time: Feb 7, 2016 at 2:08:17 AM

Latest Report: Feb 7, 2016 at 1:35 AM


Visibility: 10 mi

Pressure: 30.19 "Hg

Humidity: 51%

Dew point: 12 °F

Location of WaterburyLocation

Historic Weather in Waterbury — Graph

°F

Waterbury Temperature Yesterday

Maximum temperature yesterday: 37 °F (at 1:50 PM)
Minimum temperature yesterday: 16 °F (at 4:15 AM)
Average temperature yesterday: 27 °F

High & Low Weather Summary for the Past Weeks

 TemperatureHumidityPressure
High129 °F (Feb 1, 6:00 AM)100% (Feb 3, 8:50 PM)30.40 "Hg (Feb 3, 8:50 PM)
Low16 °F (Feb 6, 4:15 AM)3% (Feb 1, 6:00 AM)29.41 "Hg (Jan 29, 11:50 AM)
Average33 °F54%29.97 "Hg
* Reported Jan 23 12:15 AM — Feb 7 12:55 AM, Waterbury, Weather by CustomWeather, © 2016

Note: Actual official high and low records may vary slightly from our data, if they occured in-between our weather recording intervals... More about our weather records

Advertising

Waterbury Weather History for the Previous 24 Hours

 ConditionsComfort  
Time TempWeatherWind HumidityBarometerVisibility
12:55 AM
Sun, Feb 7
30 °FClear.No wind51%30.21 "Hg10 mi
12:35 AM28 °FClear.3 mph55%30.21 "Hg10 mi
12:15 AM28 °FClear.5 mph55%30.22 "Hg10 mi
11:55 PM
Sat, Feb 6
30 °FClear.3 mph55%30.23 "Hg10 mi
11:35 PM30 °FClear.3 mph55%30.24 "Hg10 mi
11:15 PM28 °FClear.No wind59%30.24 "Hg10 mi
10:35 PM30 °FClear.No wind55%30.24 "Hg10 mi
10:15 PM30 °FClear.3 mph55%30.25 "Hg10 mi
9:55 PM28 °FClear.3 mph59%30.25 "Hg10 mi
9:35 PM28 °FClear.3 mph59%30.25 "Hg10 mi
9:15 PM28 °FClear.No wind59%30.25 "Hg10 mi
7:50 PM30 °FPassing clouds.No wind55%30.26 "Hg10 mi
6:50 PM30 °FPassing clouds.5 mph59%30.26 "Hg10 mi
4:50 PM34 °FPartly sunny.9 mph48%30.26 "Hg10 mi
3:50 PM36 °FScattered clouds.12 mph44%30.26 "Hg10 mi
2:50 PM36 °FScattered clouds.10 mph44%30.27 "Hg10 mi
1:50 PM37 °FScattered clouds.8 mph41%30.29 "Hg10 mi
12:50 PM36 °FScattered clouds.8 mph41%30.31 "Hg10 mi
11:50 AM34 °FScattered clouds.6 mph44%30.34 "Hg10 mi
10:55 AM32 °FThunderstorms. Cloudy.No wind47%30.38 "HgN/A
9:55 AM28 °FScattered clouds.5 mph51%30.40 "Hg10 mi
8:55 AM28 °FScattered clouds.3 mph47%30.39 "Hg10 mi
6:55 AM19 °FClear.No wind58%30.36 "Hg10 mi
5:55 AM19 °FClear.No wind58%30.35 "Hg10 mi
5:35 AM19 °FClear.No wind63%30.34 "Hg10 mi
4:55 AM19 °FClear.No wind58%30.32 "Hg10 mi
4:35 AM18 °FClear.No wind58%30.32 "Hg10 mi
4:15 AM16 °FClear.No wind57%30.31 "Hg10 mi
3:55 AM18 °FClear.No wind53%30.31 "Hg10 mi
3:35 AM21 °FClear.No wind54%30.30 "Hg10 mi
3:15 AM21 °FClear.No wind54%30.31 "Hg10 mi
2:55 AM21 °FClear.No wind54%30.31 "Hg10 mi
2:35 AM21 °FClear.No wind54%30.32 "Hg10 mi
2:15 AM21 °FClear.No wind54%30.31 "Hg10 mi
Weather by CustomWeather, © 2016

See weather overviewHow to use our weather pages